Home > Time Zones > World Clock > Weather > Yemen > Sana > Past weeks

Flag for Yemen Weather past 2 weeks in Sana, Yemen

Now
82 °F

Scattered clouds.


Feels Like: 80 °F
Forecast: 58 / 82 °F
Wind: 15 mph from Northeast

Location: Sana'A Airport

Current Time: Aug 22, 2014 at 3:28:13 PM

Latest Report: Aug 22, 2014 at 3:00 PM


Visibility: N/A

Pressure: 30.15 "Hg

Humidity: 17%

Dew point: 34 °F

Location of SanaLocation

Historic Weather in Sana — Graph

°F

Sana temperature yesterday

Maximum temperature yesterday: 82 °F (at 3:00 PM)
Minimum temperature yesterday: 61 °F (at 6:00 AM)
Average temperature yesterday: 73 °F

Past Weeks' High & Low Weather Summary

 TemperatureHumidityPressure
High86 °F (Aug 7, 3:00 PM)100% (Aug 20, 5:00 AM)30.33 "Hg (Aug 20, 5:00 AM)
Low57 °F (Aug 20, 5:00 AM)12% (Aug 17, 12:00 PM)30.07 "Hg (Aug 16, 4:00 PM)
Average73 °F41%30.19 "Hg
* Reported Aug 7 2:00 PM — Aug 22 2:00 PM, Sana, Weather by CustomWeather, © 2014

Note: Actual official high and low records may vary slightly from our data, if they occured in-between our weather recording intervals... More about our weather records

Advertising

Sana weather history for previous 24 hours

 ConditionsComfort  
Time TempWeatherWind HumidityBarometerVisibility
2:00 PM
Aug 22
82 °FScattered clouds.18 mph17%30.15 "HgN/A
1:00 PM82 °FScattered clouds.17 mph19%30.18 "HgN/A
12:00 PM81 °FScattered clouds.20 mph20%30.21 "HgN/A
11:00 AM81 °FScattered clouds.14 mph20%30.21 "HgN/A
10:00 AM77 °FPassing clouds.13 mph22%30.21 "HgN/A
9:00 AM75 °FPassing clouds.2 mph27%30.24 "HgN/A
8:00 AM70 °FPassing clouds.2 mph33%30.21 "HgN/A
7:00 AM63 °FPassing clouds.1 mph49%30.21 "HgN/A
6:00 AM61 °FPassing clouds.2 mph45%30.18 "HgN/A
5:00 AM61 °FPassing clouds.5 mph45%30.18 "HgN/A
4:00 AM63 °FPassing clouds.2 mph42%30.18 "HgN/A
3:00 AM63 °FPassing clouds.5 mph42%30.18 "HgN/A
11:00 PM
Aug 21
72 °FPassing clouds.5 mph29%30.21 "Hg5 mi
10:00 PM73 °FPassing clouds.9 mph27%30.21 "Hg5 mi
9:00 PM73 °FPassing clouds.10 mph23%30.18 "Hg5 mi
8:00 PM75 °FPassing clouds.9 mph22%30.18 "Hg4 mi
7:00 PM77 °FPassing clouds.15 mph22%30.15 "Hg4 mi
6:00 PM79 °FScattered clouds.16 mph21%30.15 "Hg4 mi
5:00 PM81 °FScattered clouds.16 mph18%30.15 "Hg5 mi
4:00 PM81 °FScattered clouds.16 mph20%30.15 "Hg5 mi
3:00 PM82 °FScattered clouds.15 mph20%30.15 "HgN/A
Weather by CustomWeather, © 2014

See weather overviewHow to use our weather pages